GW5216 Weather Reports


time (UTC)temp
F
wind
direction
speed
knots
gust
knots
rain 1hr
in
rain 24hr
in
rain mn
in
humidity
%
barometer
mb
20260506222608 54 209 0.0 1.7 0.00 0.05 0.05 78 1021.4
20260506222104 54 67 0.0 0.0 0.00 0.05 0.05 81 1021.4
20260506221602 54 112 0.0 0.0 0.00 0.05 0.05 84 1021.4
20260506221100 53 112 0.9 2.6 0.00 0.05 0.05 84 1021.3
20260506220555 52 185 0.0 0.0 0.00 0.05 0.05 84 1021.2
20260506220051 51 270 0.0 0.0 0.00 0.05 0.05 84 1021.2
20260506215548 50 157 0.0 0.0 0.00 0.05 0.05 85 1021.0
20260506215043 50 157 0.0 0.0 0.00 0.05 0.05 87 1021.0
20260506214541 51 157 0.0 0.0 0.00 0.05 0.05 89 1021.0
20260506214038 51 157 0.0 0.0 0.00 0.05 0.05 90 1021.0
20260506213536 51 157 0.0 0.0 0.00 0.05 0.05 90 1020.9
20260506213033 51 157 0.0 0.0 0.00 0.05 0.05 92 1021.0
20260506212529 50 157 0.0 0.0 0.00 0.05 0.05 93 1021.0
20260506212024 50 157 0.0 0.0 0.00 0.05 0.05 93 1020.9
20260506211521 49 157 0.0 0.0 0.00 0.05 0.05 93 1020.9
20260506211018 49 157 0.0 0.0 0.00 0.05 0.05 93 1020.9
20260506210514 49 157 0.0 0.0 0.00 0.05 0.05 93 1020.9
20260506210011 49 157 0.0 0.0 0.00 0.05 0.05 92 1020.9
20260506205508 50 157 0.0 0.0 0.00 0.05 0.05 90 1021.0
20260506205003 50 157 0.0 0.0 0.00 0.05 0.05 91 1020.8
20260506204502 50 157 0.0 0.0 0.00 0.05 0.05 92 1020.8
20260506203958 50 112 0.0 0.0 0.00 0.05 0.05 92 1020.8
20260506203456 50 112 0.0 0.0 0.00 0.05 0.05 92 1020.7
20260506202953 50 112 0.0 0.0 0.00 0.05 0.05 92 1020.7
20260506202450 50 143 0.0 0.9 0.00 0.05 0.05 95 1020.6
20260506201946 49 270 0.0 0.0 0.00 0.03 0.03 94 1020.6
20260506201444 49 270 0.0 1.7 0.00 0.03 0.03 92 1020.5
20260506200940 50 157 0.0 0.0 0.00 0.03 0.03 92 1020.6
20260506200437 51 270 0.0 0.0 0.00 0.03 0.03 90 1020.4
20260506195933 51 296 0.0 0.0 0.00 0.03 0.03 87 1020.5
20260506195430 52 360 0.0 0.0 0.00 0.03 0.03 82 1020.4
20260506194927 52 112 0.0 0.0 0.00 0.01 0.01 78 1020.4
20260506194424 51 112 0.0 0.0 0.00 0.01 0.01 76 1020.4
20260506193921 51 337 0.0 0.0 0.00 0.01 0.01 80 1020.3
20260506193418 51 337 0.0 0.0 0.00 0.01 0.01 82 1020.2
20260506192914 51 270 0.0 0.0 0.00 0.01 0.01 82 1020.1
20260506192411 50 196 1.7 2.6 0.00 0.01 0.01 84 1020.1
20260506191908 51 157 0.0 0.0 0.00 0.01 0.01 87 1020.0
20260506191404 51 157 0.0 0.0 0.00 0.01 0.01 86 1020.0
20260506190902 51 157 0.0 0.0 0.00 0.01 0.01 86 1020.1
20260506190358 51 157 0.0 0.9 0.00 0.01 0.01 87 1019.9
20260506185855 51 157 0.0 0.0 0.00 0.01 0.01 86 1020.0
20260506185352 52 157 0.0 0.0 0.00 0.01 0.01 83 1020.0
20260506184849 52 157 0.0 0.0 0.00 0.00 0.00 81 1020.1
20260506184346 52 172 0.9 2.6 0.00 0.00 0.00 78 1020.2
20260506183843 51 157 0.0 0.0 0.00 0.00 0.00 79 1020.1
20260506183338 51 238 0.9 2.6 0.00 0.00 0.00 80 1020.0
20260506182836 51 225 0.0 0.0 0.00 0.00 0.00 80 1020.2
20260506182333 50 182 0.9 1.7 0.00 0.00 0.00 81 1020.2
20260506181831 50 180 0.0 1.7 0.00 0.00 0.00 81 1020.0
20260506181328 50 180 0.0 0.0 0.00 0.00 0.00 81 1020.2
20260506180825 50 180 0.0 0.0 0.00 0.00 0.00 82 1020.0
20260506180321 49 180 0.0 0.0 0.00 0.00 0.00 82 1020.1
20260506175817 49 180 0.9 3.5 0.00 0.00 0.00 82 1020.1
20260506175315 49 180 0.0 0.0 0.00 0.00 0.00 84 1020.1
20260506174812 49 180 0.0 0.0 0.00 0.00 0.00 84 1020.1
20260506174309 49 157 0.0 0.9 0.00 0.00 0.00 84 1020.1
20260506173806 49 157 0.0 0.0 0.00 0.00 0.00 86 1020.2
20260506173303 48 180 0.0 0.0 0.00 0.00 0.00 87 1020.1
20260506172800 48 157 0.0 0.0 0.00 0.00 0.00 88 1020.0
20260506172256 48 202 0.9 1.7 0.00 0.00 0.00 89 1020.1
20260506171754 48 202 0.0 0.0 0.00 0.00 0.00 91 1020.0
20260506171251 47 259 0.0 0.9 0.00 0.00 0.00 91 1020.0
20260506170749 47 270 0.0 0.0 0.00 0.00 0.00 91 1020.0
20260506170245 47 270 0.0 0.0 0.00 0.00 0.00 90 1020.0
20260506165744 46 202 0.0 0.0 0.00 0.00 0.00 90 1020.0
20260506165240 46 202 0.0 0.0 0.00 0.00 0.00 89 1020.1
20260506164738 46 247 0.0 0.0 0.00 0.00 0.00 88 1020.0
20260506164234 46 315 0.0 0.0 0.00 0.00 0.00 88 1020.0
20260506163731 46 315 0.0 0.0 0.00 0.00 0.00 87 1019.9
20260506163226 46 251 0.0 0.0 0.00 0.00 0.00 88 1019.9
20260506162722 46 180 0.0 0.0 0.00 0.00 0.00 88 1020.0
20260506162220 47 180 0.0 0.0 0.00 0.00 0.00 89 1019.8
20260506161717 46 180 0.0 0.9 0.00 0.00 0.00 90 1019.4
20260506161214 45 225 0.0 0.0 0.00 0.00 0.00 95 1019.1
20260506153005 45 225 0.0 0.0 0.00 0.00 0.00 95 1019.1
20260506152502 45 225 0.0 0.0 0.00 0.00 0.00 95 1019.1
20260506152000 45 225 0.0 0.0 0.00 0.00 0.00 95 1019.1
20260506151457 45 225 0.0 0.0 0.00 0.00 0.00 95 1019.1
20260506150954 45 225 0.0 0.0 0.00 0.00 0.00 96 1019.1
20260506150450 44 225 0.0 0.0 0.00 0.00 0.00 95 1019.0
20260506145947 44 225 0.0 0.0 0.00 0.00 0.00 94 1019.0
20260506145444 44 221 0.0 0.0 0.00 0.00 0.00 95 1019.0
20260506144942 44 247 0.0 0.0 0.00 0.00 0.00 96 1019.1
20260506144438 44 247 0.0 0.0 0.00 0.00 0.00 96 1019.0
20260506143936 44 247 0.0 0.0 0.00 0.00 0.00 96 1018.9
20260506143433 44 247 0.0 0.0 0.00 0.00 0.00 96 1018.9
20260506142931 44 270 0.0 0.0 0.00 0.00 0.00 96 1018.9
20260506142429 44 270 0.0 0.0 0.00 0.00 0.00 95 1018.8
20260506141927 44 270 0.0 0.0 0.00 0.00 0.00 95 1018.7
20260506141424 44 270 0.0 0.0 0.00 0.00 0.00 96 1018.8
20260506140923 44 270 0.0 0.0 0.00 0.00 0.00 96 1018.8
20260506140419 44 270 0.0 0.0 0.00 0.00 0.00 95 1018.8
20260506135916 44 270 0.0 0.0 0.00 0.00 0.00 96 1018.7
20260506135413 44 270 0.0 0.0 0.00 0.00 0.00 96 1018.6
20260506134909 44 270 0.0 0.0 0.00 0.00 0.00 96 1018.6
20260506134406 44 270 0.0 0.0 0.00 0.00 0.00 96 1018.5
20260506133903 44 247 0.0 0.0 0.00 0.00 0.00 95 1018.6
20260506133359 44 254 0.0 0.0 0.00 0.00 0.00 95 1018.6
20260506132856 44 247 0.0 0.0 0.00 0.00 0.00 94 1018.5
20260506132353 44 247 0.0 0.0 0.00 0.00 0.00 95 1018.5
20260506131851 44 247 0.0 0.0 0.00 0.00 0.00 95 1018.4
20260506131347 44 247 0.0 0.0 0.00 0.00 0.00 95 1018.4
20260506130845 44 247 0.0 0.0 0.00 0.00 0.00 94 1018.4
20260506130341 44 247 0.0 0.0 0.00 0.00 0.00 94 1018.4
20260506125839 44 247 0.0 0.0 0.00 0.00 0.00 94 1018.4
20260506125337 44 257 0.0 0.0 0.00 0.00 0.00 94 1018.3
20260506124835 44 294 0.9 1.7 0.00 0.00 0.00 93 1018.2
20260506124332 44 232 0.0 0.0 0.00 0.00 0.00 94 1018.3
20260506123829 44 247 0.0 0.0 0.00 0.00 0.00 93 1018.3
20260506123328 44 292 0.0 0.0 0.00 0.00 0.00 93 1018.2
20260506122824 44 292 0.0 0.0 0.00 0.00 0.00 92 1018.2
20260506122321 44 270 0.0 0.0 0.00 0.00 0.00 93 1018.0
20260506121819 45 225 0.0 0.0 0.00 0.00 0.00 93 1018.1
20260506121316 45 180 0.0 0.0 0.00 0.00 0.00 93 1018.0
20260506120813 45 202 0.0 0.9 0.00 0.00 0.00 91 1017.9
20260506120311 45 247 0.0 0.0 0.00 0.00 0.00 92 1017.9
20260506115808 45 270 0.0 0.0 0.00 0.00 0.00 91 1017.9
20260506115307 45 225 0.0 0.0 0.00 0.00 0.00 91 1017.9
20260506114804 45 225 0.0 0.0 0.00 0.00 0.00 91 1017.8
20260506114302 45 212 0.9 2.6 0.00 0.00 0.00 90 1017.8
20260506113800 45 193 0.0 1.7 0.00 0.00 0.00 90 1017.8
20260506113258 45 337 0.0 0.0 0.00 0.00 0.00 90 1017.8
20260506112754 45 337 0.0 0.0 0.00 0.00 0.00 90 1017.8
20260506112251 45 245 0.0 0.0 0.00 0.00 0.00 90 1017.7
20260506111748 45 237 0.0 0.9 0.00 0.00 0.00 90 1017.8
20260506111246 45 247 0.0 0.0 0.00 0.00 0.00 89 1017.6
20260506110743 45 247 0.0 0.0 0.00 0.00 0.00 89 1017.5
20260506110241 45 247 0.0 0.0 0.00 0.00 0.00 89 1017.7
20260506105737 45 247 0.0 0.0 0.00 0.00 0.00 90 1017.5
20260506105234 45 247 0.0 0.0 0.00 0.00 0.00 90 1017.5
20260506104732 45 247 0.0 0.0 0.00 0.00 0.00 89 1017.5
20260506104229 45 247 0.0 0.0 0.00 0.00 0.00 89 1017.5
20260506103726 45 247 0.0 0.0 0.00 0.00 0.00 90 1017.5
20260506103223 45 247 0.0 0.0 0.00 0.00 0.00 88 1017.5
20260506102721 45 247 0.0 0.0 0.00 0.00 0.00 89 1017.5
20260506102219 45 247 0.0 0.0 0.00 0.00 0.00 89 1017.5
20260506101715 45 247 0.0 0.9 0.00 0.00 0.00 89 1017.4
20260506101212 45 247 0.0 0.0 0.00 0.00 0.00 89 1017.5
20260506100710 45 247 0.0 0.0 0.00 0.00 0.00 88 1017.4
20260506100208 45 247 0.0 0.0 0.00 0.00 0.00 88 1017.4
20260506095706 45 225 0.0 0.0 0.00 0.00 0.00 88 1017.4
20260506095203 45 225 0.0 0.0 0.00 0.00 0.00 89 1017.4
20260506094700 45 270 0.0 0.0 0.00 0.00 0.00 89 1017.2
20260506094158 45 270 0.0 0.0 0.00 0.00 0.00 88 1017.2
20260506093657 45 270 0.0 0.0 0.00 0.00 0.00 88 1017.0
20260506093153 45 270 0.0 0.0 0.00 0.00 0.00 88 1017.1
20260506092651 45 270 0.0 0.0 0.00 0.00 0.00 88 1017.0
20260506092148 45 270 0.0 0.0 0.00 0.00 0.00 89 1017.0
20260506091646 45 270 0.0 0.0 0.00 0.00 0.00 88 1017.0
20260506091143 45 270 0.0 0.0 0.00 0.00 0.00 88 1017.0
20260506090641 45 270 0.0 0.0 0.00 0.00 0.00 88 1016.9
20260506090137 45 270 0.0 0.0 0.00 0.00 0.00 88 1017.0
20260506085634 45 270 0.0 0.0 0.00 0.00 0.00 86 1017.0
20260506085130 45 247 0.0 0.0 0.00 0.00 0.00 87 1017.0
20260506084627 45 247 0.0 0.9 0.00 0.00 0.00 86 1016.9
20260506084124 45 247 0.0 0.0 0.00 0.00 0.00 87 1017.0
20260506083621 45 247 0.0 0.0 0.00 0.00 0.00 86 1016.9
20260506083118 45 294 0.0 0.0 0.00 0.00 0.00 87 1016.8
20260506082615 45 315 0.0 0.9 0.00 0.00 0.00 87 1016.9
20260506082110 45 315 0.0 0.0 0.00 0.00 0.00 86 1016.8
20260506081609 45 337 0.0 0.0 0.00 0.00 0.00 86 1016.8
20260506081106 45 337 0.0 0.0 0.00 0.00 0.00 87 1016.9
20260506080604 45 337 0.0 0.0 0.00 0.00 0.00 86 1016.8
20260506073044 45 247 0.0 0.0 0.00 0.00 0.00 87 1016.9
20260506072541 45 261 0.0 0.9 0.00 0.00 0.00 88 1016.8
20260506072039 45 292 0.0 0.0 0.00 0.00 0.00 88 1016.8
20260506071536 45 292 0.0 0.0 0.00 0.00 0.00 88 1016.8
20260506071034 45 292 0.0 0.0 0.00 0.00 0.00 87 1016.8
20260506070531 44 292 0.0 0.0 0.00 0.00 0.00 87 1016.8
20260506062508 44 292 0.0 0.0 0.00 0.00 0.00 86 1016.5
20260506062005 44 292 0.0 0.0 0.00 0.00 0.00 85 1016.5
20260506061500 44 292 0.0 0.0 0.00 0.00 0.00 86 1016.6
20260506060958 45 292 0.0 0.0 0.00 0.00 0.00 86 1016.5
20260506060456 45 292 0.0 0.0 0.00 0.00 0.00 85 1016.5
20260506050925 47 291 0.0 2.6 0.00 0.00 0.00 79 1016.6
20260506050423 47 270 0.0 0.9 0.00 0.00 0.00 78 1016.5
20260506044913 48 247 0.0 0.0 0.00 0.00 0.00 75 1016.4
20260506044411 48 247 0.0 0.0 0.00 0.00 0.00 74 1016.3
20260506043908 49 247 0.0 0.0 0.00 0.00 0.00 74 1016.3
20260506043406 49 247 0.0 0.0 0.00 0.00 0.00 72 1016.2
20260506042903 49 270 0.0 1.7 0.00 0.00 0.00 71 1016.2
20260506042403 50 270 0.0 0.0 0.00 0.00 0.00 71 1016.2
20260506041900 50 292 0.0 0.0 0.00 0.00 0.00 70 1016.1
20260506041357 50 303 0.0 0.0 0.00 0.00 0.00 70 1016.0
20260506040855 51 245 0.0 0.9 0.00 0.00 0.00 70 1016.0
20260506040352 51 247 0.0 0.0 0.00 0.00 0.00 69 1016.0
20260506035848 51 247 0.0 0.0 0.00 0.00 0.00 69 1016.1
20260506035345 52 247 0.0 0.0 0.00 0.00 0.00 66 1015.9
20260506034843 52 222 0.9 2.6 0.00 0.00 0.00 66 1015.8
20260506034340 53 180 0.0 0.0 0.00 0.00 0.00 64 1015.7
20260506033836 54 190 0.0 0.0 0.00 0.00 0.00 62 1015.8
20260506033334 54 180 2.6 5.2 0.00 0.00 0.00 61 1015.9
20260506032830 55 158 1.7 4.3 0.00 0.00 0.00 61 1015.9
20260506032327 55 185 0.9 1.7 0.00 0.00 0.00 60 1015.7
20260506031824 55 157 0.0 0.0 0.00 0.00 0.00 61 1015.8
20260506031322 55 232 0.0 2.6 0.00 0.00 0.00 59 1015.8
20260506030819 56 357 0.9 2.6 0.00 0.00 0.00 58 1015.7
20260506030317 56 219 0.0 1.7 0.00 0.00 0.00 58 1015.6
20260506025813 57 182 0.9 2.6 0.00 0.00 0.00 56 1015.6
20260506025310 57 189 0.0 0.9 0.00 0.00 0.00 57 1015.6
20260506024807 57 220 0.9 3.5 0.00 0.00 0.00 56 1015.4
20260506024303 57 230 0.0 1.7 0.00 0.00 0.00 57 1015.4
20260506023800 57 163 0.0 1.7 0.00 0.00 0.00 56 1015.4
20260506023257 57 165 0.9 3.5 0.00 0.00 0.00 55 1015.3
20260506022753 57 209 0.9 4.3 0.00 0.00 0.00 54 1015.2
20260506022251 58 246 0.9 2.6 0.00 0.00 0.00 54 1015.2
20260506021749 58 177 1.7 3.5 0.00 0.00 0.00 53 1015.1
20260506021246 58 190 1.7 5.2 0.00 0.00 0.00 53 1015.1
20260506020742 59 171 0.9 2.6 0.00 0.00 0.00 53 1014.9
20260506020241 59 168 0.9 2.6 0.00 0.00 0.00 53 1014.9
20260506015738 59 187 1.7 5.2 0.00 0.00 0.00 53 1014.9
20260506015235 59 165 1.7 4.3 0.00 0.00 0.00 52 1014.9
20260506014732 60 142 0.9 2.6 0.00 0.00 0.00 51 1014.9
20260506014228 60 202 1.7 4.3 0.00 0.00 0.00 50 1014.9
20260506013726 60 201 1.7 2.6 0.00 0.00 0.00 48 1014.8
20260506013223 61 188 1.7 5.2 0.00 0.00 0.00 48 1014.8
20260506012719 61 129 1.7 2.6 0.00 0.00 0.00 48 1014.8
20260506012216 61 348 1.7 3.5 0.00 0.00 0.00 48 1014.7
20260506011713 61 172 0.0 0.9 0.00 0.00 0.00 47 1014.5
20260506011209 62 178 0.0 2.6 0.00 0.00 0.00 47 1014.4
20260506010708 62 193 2.6 6.1 0.00 0.00 0.00 47 1014.5
20260506010205 62 141 0.9 2.6 0.00 0.00 0.00 47 1014.5
20260506005702 62 203 0.9 3.5 0.00 0.00 0.00 46 1014.5
20260506005159 62 169 1.7 4.3 0.00 0.00 0.00 45 1014.6
20260506004655 62 163 2.6 3.5 0.00 0.00 0.00 44 1014.6
20260506004152 63 218 0.9 1.7 0.00 0.00 0.00 44 1014.7
20260506003648 63 79 1.7 4.3 0.00 0.00 0.00 44 1014.6
20260506003145 63 192 1.7 4.3 0.00 0.00 0.00 44 1014.5
20260506002641 63 203 2.6 5.2 0.00 0.00 0.00 44 1014.5
20260506002137 63 199 0.9 3.5 0.00 0.00 0.00 43 1014.5
20260506001633 63 187 3.5 7.0 0.00 0.00 0.00 43 1014.5
20260506001131 63 181 2.6 7.0 0.00 0.00 0.00 44 1014.5
20260506000628 63 217 1.7 4.3 0.00 0.00 0.00 44 1014.4
20260506000125 64 202 0.9 1.7 0.00 0.00 0.00 42 1014.3
20260505235623 64 225 0.9 1.7 0.00 0.00 0.00 43 1014.2
20260505235120 64 213 3.5 6.1 0.00 0.00 0.00 43 1014.2
20260505234617 65 232 0.9 3.5 0.00 0.00 0.00 43 1014.1
20260505234113 65 171 0.0 1.7 0.00 0.00 0.00 45 1013.9
20260505233611 65 219 0.0 0.0 0.00 0.00 0.00 45 1013.9
20260505233108 65 139 1.7 2.6 0.00 0.00 0.00 45 1013.9
20260505232606 65 145 1.7 3.5 0.00 0.00 0.00 45 1014.0
20260505232103 65 202 0.9 1.7 0.00 0.00 0.00 47 1014.0
20260505231600 65 205 0.9 4.3 0.00 0.00 0.00 47 1014.2
20260505231059 65 208 0.9 2.6 0.00 0.00 0.00 47 1014.0
20260505230556 65 206 0.9 2.6 0.00 0.00 0.00 47 1014.0
20260505230052 64 184 1.7 6.1 0.00 0.00 0.00 49 1014.0
20260505225549 64 266 0.0 1.7 0.00 0.00 0.00 50 1013.9
20260505225045 64 188 1.7 3.5 0.00 0.00 0.00 49 1013.8
20260505224542 64 299 1.7 3.5 0.00 0.00 0.00 49 1013.8
20260505224039 64 299 1.7 4.3 0.00 0.00 0.00 48 1013.7
20260505223536 65 121 1.7 3.5 0.00 0.00 0.00 45 1013.6
20260505223032 66 263 0.9 3.5 0.00 0.00 0.00 45 1013.6